| time (UTC) | temp F | wind direction | speed MPH | gust MPH | rain 1hr in | rain 24hr in | rain mn in | humidity % | barometer mb |
| 20260505173339 | 81 | 263 | 0.0 | 5.0 | 0.00 | 0.00 | 0.00 | 46 | 1018.9 |
| 20260505172836 | 81 | 82 | 3.0 | 3.0 | 0.00 | 0.00 | 0.00 | 41 | 1019.1 |
| 20260505172334 | 82 | 270 | 3.0 | 3.0 | 0.00 | 0.00 | 0.00 | 42 | 1019.0 |
| 20260505171833 | 81 | 312 | 2.0 | 3.0 | 0.00 | 0.00 | 0.00 | 41 | 1019.0 |
| 20260505171330 | 82 | 84 | 0.0 | 3.0 | 0.00 | 0.00 | 0.00 | 41 | 1019.3 |
| 20260505170827 | 82 | 277 | 0.0 | 2.0 | 0.00 | 0.00 | 0.00 | 49 | 1019.1 |
| 20260505170324 | 80 | 54 | 1.0 | 3.0 | 0.00 | 0.00 | 0.00 | 43 | 1019.1 |
| 20260505165819 | 80 | 99 | 0.0 | 1.0 | 0.00 | 0.00 | 0.00 | 47 | 1019.1 |
| 20260505165315 | 79 | 315 | 8.0 | 8.0 | 0.00 | 0.00 | 0.00 | 42 | 1019.1 |
| 20260505164811 | 79 | 60 | 0.0 | 4.0 | 0.00 | 0.00 | 0.00 | 41 | 1019.4 |
| 20260505164308 | 78 | 94 | 2.0 | 3.0 | 0.00 | 0.00 | 0.00 | 46 | 1019.3 |
| 20260505163806 | 78 | 63 | 2.0 | 5.0 | 0.00 | 0.00 | 0.00 | 51 | 1019.6 |
| 20260505163304 | 76 | 315 | 3.0 | 5.0 | 0.00 | 0.00 | 0.00 | 49 | 1019.7 |
| 20260505162802 | 78 | 0 | 0.0 | 4.0 | 0.00 | 0.00 | 0.00 | 49 | 1019.5 |
| 20260505162258 | 78 | 291 | 0.0 | 3.0 | 0.00 | 0.00 | 0.00 | 53 | 1019.6 |
| 20260505161755 | 76 | 322 | 2.0 | 4.0 | 0.00 | 0.00 | 0.00 | 54 | 1019.7 |
| 20260505161253 | 77 | 111 | 0.0 | 3.0 | 0.00 | 0.00 | 0.00 | 48 | 1019.7 |
| 20260505160750 | 77 | 60 | 0.0 | 1.0 | 0.00 | 0.00 | 0.00 | 53 | 1019.7 |
| 20260505160248 | 77 | 45 | 2.0 | 2.0 | 0.00 | 0.00 | 0.00 | 53 | 1019.8 |
| 20260505153227 | 77 | 278 | 0.0 | 0.0 | 0.00 | 0.00 | 0.00 | 58 | 1020.1 |
| 20260505152724 | 75 | 90 | 0.0 | 2.0 | 0.00 | 0.00 | 0.00 | 59 | 1020.0 |
| 20260505152220 | 75 | 270 | 0.0 | 1.0 | 0.00 | 0.00 | 0.00 | 62 | 1020.0 |
| 20260505151715 | 74 | 63 | 3.0 | 4.0 | 0.00 | 0.00 | 0.00 | 59 | 1019.9 |
| 20260505151213 | 73 | 96 | 0.0 | 2.0 | 0.00 | 0.00 | 0.00 | 59 | 1020.0 |
| 20260505150709 | 73 | 262 | 1.0 | 6.0 | 0.00 | 0.00 | 0.00 | 60 | 1020.1 |
| 20260505150206 | 73 | 348 | 4.0 | 4.0 | 0.00 | 0.00 | 0.00 | 65 | 1019.9 |
| 20260505140639 | 67 | 97 | 0.0 | 3.0 | 0.00 | 0.00 | 0.00 | 73 | 1020.0 |
| 20260505140136 | 67 | 71 | 0.0 | 2.0 | 0.00 | 0.00 | 0.00 | 73 | 1019.9 |
| 20260505124549 | 59 | 117 | 0.0 | 2.0 | 0.00 | 0.00 | 0.00 | 85 | 1019.9 |
| 20260505124046 | 59 | 294 | 0.0 | 2.0 | 0.00 | 0.00 | 0.00 | 86 | 1019.9 |
| 20260505123542 | 58 | 300 | 0.0 | 3.0 | 0.00 | 0.00 | 0.00 | 86 | 1020.0 |
| 20260505123038 | 57 | 45 | 0.0 | 2.0 | 0.00 | 0.00 | 0.00 | 88 | 1019.8 |
| 20260505122535 | 57 | 82 | 0.0 | 2.0 | 0.00 | 0.00 | 0.00 | 88 | 1019.8 |
| 20260505122032 | 56 | 328 | 2.0 | 3.0 | 0.00 | 0.00 | 0.00 | 91 | 1019.7 |
| 20260505121529 | 55 | 279 | 0.0 | 1.0 | 0.00 | 0.00 | 0.00 | 93 | 1019.8 |
| 20260505121026 | 54 | 345 | 0.0 | 0.0 | 0.00 | 0.00 | 0.00 | 94 | 1019.8 |
| 20260505120522 | 54 | 306 | 0.0 | 0.0 | 0.00 | 0.00 | 0.00 | 95 | 1019.9 |
| 20260505120017 | 53 | 41 | 2.0 | 2.0 | 0.00 | 0.00 | 0.00 | 96 | 1019.6 |
| 20260505115512 | 53 | 169 | 0.0 | 1.0 | 0.00 | 0.00 | 0.00 | 96 | 1019.6 |
| 20260505115011 | 52 | 0 | 0.0 | 1.0 | 0.00 | 0.00 | 0.00 | 96 | 1019.3 |
| 20260505114507 | 51 | 114 | 1.0 | 1.0 | 0.00 | 0.00 | 0.00 | 96 | 1019.2 |
| 20260505114003 | 51 | 151 | 0.0 | 0.0 | 0.00 | 0.00 | 0.00 | 96 | 1019.4 |
| 20260505113500 | 50 | 151 | 0.0 | 0.0 | 0.00 | 0.00 | 0.00 | 96 | 1019.5 |
| 20260505112956 | 50 | 81 | 0.0 | 0.0 | 0.00 | 0.00 | 0.00 | 96 | 1019.4 |
| 20260505112453 | 50 | 81 | 0.0 | 0.0 | 0.00 | 0.00 | 0.00 | 96 | 1019.5 |
| 20260505111950 | 50 | 81 | 0.0 | 0.0 | 0.00 | 0.00 | 0.00 | 96 | 1019.5 |
| 20260505111444 | 49 | 66 | 0.0 | 0.0 | 0.00 | 0.00 | 0.00 | 95 | 1019.3 |
| 20260505110940 | 49 | 66 | 0.0 | 1.0 | 0.00 | 0.00 | 0.00 | 95 | 1019.3 |
| 20260505110438 | 49 | 99 | 0.0 | 0.0 | 0.00 | 0.00 | 0.00 | 95 | 1019.4 |
| 20260505101908 | 51 | 75 | 0.0 | 1.0 | 0.00 | 0.00 | 0.00 | 92 | 1019.4 |
| 20260505101403 | 50 | 60 | 0.0 | 0.0 | 0.00 | 0.00 | 0.00 | 91 | 1019.2 |
| 20260505100859 | 51 | 60 | 0.0 | 0.0 | 0.00 | 0.00 | 0.00 | 91 | 1019.3 |
| 20260505100356 | 51 | 75 | 0.0 | 1.0 | 0.00 | 0.00 | 0.00 | 90 | 1019.4 |
| 20260505095851 | 51 | 66 | 0.0 | 1.0 | 0.00 | 0.00 | 0.00 | 90 | 1019.2 |
| 20260505095349 | 52 | 74 | 0.0 | 0.0 | 0.00 | 0.00 | 0.00 | 89 | 1019.0 |
| 20260505094845 | 52 | 90 | 0.0 | 0.0 | 0.00 | 0.00 | 0.00 | 88 | 1019.2 |
| 20260505094342 | 52 | 35 | 0.0 | 0.0 | 0.00 | 0.00 | 0.00 | 88 | 1019.1 |
| 20260505093838 | 53 | 35 | 0.0 | 1.0 | 0.00 | 0.00 | 0.00 | 87 | 1019.0 |
| 20260505093335 | 53 | 23 | 0.0 | 0.0 | 0.00 | 0.00 | 0.00 | 86 | 1018.9 |
| 20260505092832 | 54 | 66 | 0.0 | 0.0 | 0.00 | 0.00 | 0.00 | 84 | 1019.1 |
| 20260505092331 | 54 | 66 | 0.0 | 0.0 | 0.00 | 0.00 | 0.00 | 84 | 1019.0 |
| 20260505091827 | 55 | 81 | 0.0 | 0.0 | 0.00 | 0.00 | 0.00 | 83 | 1018.7 |
| 20260505091325 | 55 | 74 | 0.0 | 1.0 | 0.00 | 0.00 | 0.00 | 82 | 1019.0 |
| 20260505090823 | 55 | 23 | 0.0 | 1.0 | 0.00 | 0.00 | 0.00 | 82 | 1018.8 |
| 20260505090321 | 55 | 20 | 0.0 | 2.0 | 0.00 | 0.00 | 0.00 | 83 | 1018.5 |
| 20260505085818 | 55 | 74 | 0.0 | 0.0 | 0.00 | 0.00 | 0.00 | 83 | 1018.5 |
| 20260505085316 | 55 | 74 | 0.0 | 0.0 | 0.00 | 0.00 | 0.00 | 83 | 1018.4 |
| 20260505084813 | 55 | 74 | 0.0 | 0.0 | 0.00 | 0.00 | 0.00 | 81 | 1018.7 |
| 20260505084312 | 55 | 90 | 0.0 | 0.0 | 0.00 | 0.00 | 0.00 | 81 | 1018.4 |
| 20260505083808 | 56 | 90 | 0.0 | 2.0 | 0.00 | 0.00 | 0.00 | 80 | 1018.5 |
| 20260505083306 | 56 | 29 | 1.0 | 2.0 | 0.00 | 0.00 | 0.00 | 80 | 1018.6 |
| 20260505082802 | 56 | 66 | 0.0 | 1.0 | 0.00 | 0.00 | 0.00 | 79 | 1018.4 |
| 20260505082259 | 56 | 18 | 1.0 | 1.0 | 0.00 | 0.00 | 0.00 | 79 | 1018.2 |
| 20260505081755 | 56 | 346 | 0.0 | 0.0 | 0.00 | 0.00 | 0.00 | 78 | 1018.3 |
| 20260505081252 | 56 | 14 | 0.0 | 1.0 | 0.00 | 0.00 | 0.00 | 78 | 1018.1 |
| 20260505080749 | 56 | 262 | 1.0 | 2.0 | 0.00 | 0.00 | 0.00 | 80 | 1018.2 |
| 20260505080244 | 56 | 66 | 1.0 | 1.0 | 0.00 | 0.00 | 0.00 | 78 | 1018.1 |
| 20260505075740 | 57 | 66 | 0.0 | 2.0 | 0.00 | 0.00 | 0.00 | 78 | 1018.2 |
| 20260505075238 | 56 | 279 | 0.0 | 0.0 | 0.00 | 0.00 | 0.00 | 78 | 1018.0 |
| 20260505074735 | 56 | 14 | 0.0 | 1.0 | 0.00 | 0.00 | 0.00 | 78 | 1018.1 |
| 20260505074232 | 56 | 0 | 0.0 | 0.0 | 0.00 | 0.00 | 0.00 | 78 | 1018.3 |
| 20260505073730 | 57 | 0 | 0.0 | 1.0 | 0.00 | 0.00 | 0.00 | 78 | 1018.0 |
| 20260505073227 | 57 | 26 | 0.0 | 0.0 | 0.00 | 0.00 | 0.00 | 76 | 1018.0 |
| 20260505072724 | 57 | 81 | 0.0 | 0.0 | 0.00 | 0.00 | 0.00 | 76 | 1018.1 |
| 20260505072220 | 58 | 90 | 1.0 | 2.0 | 0.00 | 0.00 | 0.00 | 75 | 1018.0 |
| 20260505071715 | 58 | 74 | 0.0 | 1.0 | 0.00 | 0.00 | 0.00 | 75 | 1018.0 |
| 20260505071213 | 58 | 81 | 0.0 | 0.0 | 0.00 | 0.00 | 0.00 | 74 | 1018.0 |
| 20260505070710 | 58 | 81 | 0.0 | 1.0 | 0.00 | 0.00 | 0.00 | 74 | 1018.1 |
| 20260505070206 | 58 | 337 | 0.0 | 1.0 | 0.00 | 0.00 | 0.00 | 74 | 1017.9 |
| 20260505065702 | 59 | 166 | 0.0 | 2.0 | 0.00 | 0.00 | 0.00 | 74 | 1018.0 |
| 20260505065159 | 58 | 74 | 0.0 | 1.0 | 0.00 | 0.00 | 0.00 | 72 | 1018.2 |
| 20260505064656 | 58 | 54 | 0.0 | 0.0 | 0.00 | 0.00 | 0.00 | 73 | 1017.9 |
| 20260505064154 | 58 | 157 | 0.0 | 1.0 | 0.00 | 0.00 | 0.00 | 73 | 1018.1 |
| 20260505063651 | 59 | 270 | 0.0 | 0.0 | 0.00 | 0.00 | 0.00 | 73 | 1017.9 |
| 20260505063147 | 59 | 99 | 0.0 | 1.0 | 0.00 | 0.00 | 0.00 | 72 | 1017.9 |
| 20260505062644 | 59 | 63 | 0.0 | 1.0 | 0.00 | 0.00 | 0.00 | 71 | 1018.1 |
| 20260505062141 | 59 | 32 | 0.0 | 2.0 | 0.00 | 0.00 | 0.00 | 71 | 1017.9 |
| 20260505061638 | 59 | 0 | 0.0 | 2.0 | 0.00 | 0.00 | 0.00 | 71 | 1017.9 |
| 20260505061137 | 59 | 114 | 0.0 | 2.0 | 0.00 | 0.00 | 0.00 | 70 | 1017.9 |
| 20260505060633 | 58 | 60 | 0.0 | 2.0 | 0.00 | 0.00 | 0.00 | 72 | 1018.0 |
| 20260505060130 | 58 | 90 | 0.0 | 2.0 | 0.00 | 0.00 | 0.00 | 72 | 1018.1 |
| 20260505055625 | 58 | 66 | 0.0 | 2.0 | 0.00 | 0.00 | 0.00 | 72 | 1018.0 |
| 20260505055122 | 56 | 74 | 0.0 | 1.0 | 0.00 | 0.00 | 0.00 | 72 | 1018.1 |
| 20260505054620 | 56 | 345 | 0.0 | 3.0 | 0.00 | 0.00 | 0.00 | 71 | 1018.2 |
| 20260505054118 | 56 | 23 | 2.0 | 2.0 | 0.00 | 0.00 | 0.00 | 71 | 1018.1 |
| 20260505053615 | 56 | 96 | 0.0 | 1.0 | 0.00 | 0.00 | 0.00 | 70 | 1018.2 |
| 20260505053111 | 56 | 40 | 2.0 | 2.0 | 0.00 | 0.00 | 0.00 | 71 | 1018.0 |
| 20260505052608 | 56 | 279 | 0.0 | 0.0 | 0.00 | 0.00 | 0.00 | 72 | 1018.2 |
| 20260505052106 | 56 | 279 | 0.0 | 0.0 | 0.00 | 0.00 | 0.00 | 71 | 1018.2 |
| 20260505051602 | 55 | 15 | 0.0 | 1.0 | 0.00 | 0.00 | 0.00 | 71 | 1018.0 |
| 20260505051101 | 55 | 15 | 0.0 | 1.0 | 0.00 | 0.00 | 0.00 | 74 | 1018.2 |
| 20260505050558 | 55 | 352 | 0.0 | 0.0 | 0.00 | 0.00 | 0.00 | 72 | 1018.3 |
| 20260505041526 | 57 | 68 | 0.0 | 2.0 | 0.00 | 0.00 | 0.00 | 70 | 1018.3 |
| 20260505041023 | 58 | 32 | 0.0 | 0.0 | 0.00 | 0.00 | 0.00 | 69 | 1018.1 |
| 20260505040521 | 57 | 32 | 0.0 | 0.0 | 0.00 | 0.00 | 0.00 | 68 | 1018.1 |
| 20260505040018 | 58 | 32 | 0.0 | 2.0 | 0.00 | 0.00 | 0.00 | 68 | 1018.2 |
| 20260505035514 | 58 | 66 | 0.0 | 0.0 | 0.00 | 0.00 | 0.00 | 66 | 1018.3 |
| 20260505035011 | 58 | 66 | 0.0 | 0.0 | 0.00 | 0.00 | 0.00 | 67 | 1018.2 |
| 20260505034507 | 58 | 66 | 0.0 | 2.0 | 0.00 | 0.00 | 0.00 | 67 | 1018.2 |
| 20260505034004 | 58 | 0 | 0.0 | 1.0 | 0.00 | 0.00 | 0.00 | 66 | 1018.4 |
| 20260505033501 | 59 | 66 | 1.0 | 1.0 | 0.00 | 0.00 | 0.00 | 66 | 1018.2 |
| 20260505032959 | 59 | 180 | 0.0 | 2.0 | 0.00 | 0.00 | 0.00 | 66 | 1018.3 |
| 20260505032456 | 59 | 294 | 0.0 | 1.0 | 0.00 | 0.00 | 0.00 | 65 | 1018.1 |
| 20260505031952 | 59 | 90 | 0.0 | 1.0 | 0.00 | 0.00 | 0.00 | 64 | 1018.3 |
| 20260505031450 | 58 | 20 | 0.0 | 0.0 | 0.00 | 0.00 | 0.00 | 66 | 1018.3 |
| 20260505030946 | 57 | 15 | 0.0 | 1.0 | 0.00 | 0.00 | 0.00 | 66 | 1018.1 |
| 20260505030442 | 57 | 279 | 0.0 | 0.0 | 0.00 | 0.00 | 0.00 | 66 | 1018.2 |
| 20260505025938 | 57 | 106 | 0.0 | 0.0 | 0.00 | 0.00 | 0.00 | 67 | 1018.3 |
| 20260505025435 | 57 | 106 | 0.0 | 0.0 | 0.00 | 0.00 | 0.00 | 67 | 1018.2 |
| 20260505024934 | 57 | 106 | 0.0 | 0.0 | 0.00 | 0.00 | 0.00 | 66 | 1018.3 |
| 20260505024431 | 57 | 294 | 0.0 | 0.0 | 0.00 | 0.00 | 0.00 | 65 | 1018.1 |
| 20260505023928 | 57 | 15 | 0.0 | 0.0 | 0.00 | 0.00 | 0.00 | 65 | 1018.2 |
| 20260505023425 | 57 | 15 | 0.0 | 0.0 | 0.00 | 0.00 | 0.00 | 64 | 1018.2 |
| 20260505022922 | 57 | 14 | 0.0 | 0.0 | 0.00 | 0.00 | 0.00 | 65 | 1018.0 |
| 20260505022420 | 58 | 14 | 0.0 | 1.0 | 0.00 | 0.00 | 0.00 | 66 | 1018.2 |
| 20260505021917 | 58 | 6 | 0.0 | 0.0 | 0.00 | 0.00 | 0.00 | 66 | 1018.0 |
| 20260505021413 | 58 | 6 | 0.0 | 0.0 | 0.00 | 0.00 | 0.00 | 64 | 1017.9 |
| 20260505020909 | 59 | 6 | 0.0 | 0.0 | 0.00 | 0.00 | 0.00 | 65 | 1017.8 |
| 20260505020404 | 59 | 346 | 0.0 | 0.0 | 0.00 | 0.00 | 0.00 | 63 | 1017.8 |
| 20260505015902 | 59 | 346 | 0.0 | 0.0 | 0.00 | 0.00 | 0.00 | 62 | 1017.8 |
| 20260505015359 | 59 | 346 | 0.0 | 0.0 | 0.00 | 0.00 | 0.00 | 61 | 1017.7 |
| 20260505014856 | 60 | 346 | 0.0 | 1.0 | 0.00 | 0.00 | 0.00 | 61 | 1017.8 |
| 20260505014353 | 60 | 74 | 0.0 | 0.0 | 0.00 | 0.00 | 0.00 | 61 | 1017.7 |
| 20260505013849 | 60 | 74 | 0.0 | 0.0 | 0.00 | 0.00 | 0.00 | 59 | 1017.5 |
| 20260505013347 | 60 | 74 | 0.0 | 0.0 | 0.00 | 0.00 | 0.00 | 58 | 1017.7 |
| 20260505012845 | 61 | 74 | 0.0 | 0.0 | 0.00 | 0.00 | 0.00 | 58 | 1017.6 |
| 20260505012343 | 61 | 74 | 0.0 | 0.0 | 0.00 | 0.00 | 0.00 | 57 | 1017.5 |
| 20260505011838 | 62 | 74 | 0.0 | 0.0 | 0.00 | 0.00 | 0.00 | 57 | 1017.4 |
| 20260505011335 | 62 | 74 | 0.0 | 0.0 | 0.00 | 0.00 | 0.00 | 57 | 1017.4 |
| 20260505010831 | 62 | 270 | 0.0 | 0.0 | 0.00 | 0.00 | 0.00 | 56 | 1017.4 |
| 20260505010327 | 62 | 270 | 0.0 | 0.0 | 0.00 | 0.00 | 0.00 | 56 | 1017.4 |
| 20260505005824 | 63 | 270 | 0.0 | 0.0 | 0.00 | 0.00 | 0.00 | 57 | 1017.4 |
| 20260505005321 | 63 | 270 | 0.0 | 0.0 | 0.00 | 0.00 | 0.00 | 53 | 1017.3 |
| 20260505004818 | 63 | 270 | 0.0 | 0.0 | 0.00 | 0.00 | 0.00 | 52 | 1017.2 |
| 20260505004314 | 64 | 270 | 0.0 | 0.0 | 0.00 | 0.00 | 0.00 | 51 | 1017.0 |
| 20260505003812 | 64 | 270 | 0.0 | 1.0 | 0.00 | 0.00 | 0.00 | 51 | 1017.3 |
| 20260505003309 | 65 | 261 | 0.0 | 0.0 | 0.00 | 0.00 | 0.00 | 50 | 1017.0 |
| 20260505002805 | 65 | 261 | 0.0 | 0.0 | 0.00 | 0.00 | 0.00 | 49 | 1017.1 |
| 20260505002304 | 66 | 261 | 0.0 | 0.0 | 0.00 | 0.00 | 0.00 | 49 | 1017.0 |
| 20260505001800 | 66 | 261 | 0.0 | 0.0 | 0.00 | 0.00 | 0.00 | 49 | 1016.9 |
| 20260505001257 | 67 | 261 | 0.0 | 0.0 | 0.00 | 0.00 | 0.00 | 48 | 1017.1 |
| 20260505000754 | 68 | 261 | 0.0 | 0.0 | 0.00 | 0.00 | 0.00 | 46 | 1017.2 |
| 20260505000252 | 68 | 261 | 0.0 | 0.0 | 0.00 | 0.00 | 0.00 | 46 | 1017.1 |
| 20260504235748 | 69 | 261 | 0.0 | 0.0 | 0.00 | 0.00 | 0.00 | 45 | 1016.8 |
| 20260504235245 | 71 | 261 | 0.0 | 0.0 | 0.00 | 0.00 | 0.00 | 45 | 1016.7 |
| 20260504234742 | 71 | 261 | 0.0 | 0.0 | 0.00 | 0.00 | 0.00 | 40 | 1016.8 |
| 20260504234239 | 72 | 261 | 0.0 | 0.0 | 0.00 | 0.00 | 0.00 | 40 | 1016.7 |
| 20260504233735 | 73 | 261 | 0.0 | 0.0 | 0.00 | 0.00 | 0.00 | 40 | 1016.7 |
| 20260504233231 | 75 | 279 | 0.0 | 0.0 | 0.00 | 0.00 | 0.00 | 39 | 1016.5 |
| 20260504232729 | 75 | 300 | 0.0 | 1.0 | 0.00 | 0.00 | 0.00 | 37 | 1016.6 |
| 20260504232226 | 77 | 0 | 0.0 | 0.0 | 0.00 | 0.00 | 0.00 | 37 | 1016.5 |
| 20260504231722 | 78 | 345 | 0.0 | 0.0 | 0.00 | 0.00 | 0.00 | 36 | 1016.5 |
| 20260504231219 | 81 | 345 | 0.0 | 0.0 | 0.00 | 0.00 | 0.00 | 34 | 1016.5 |
| 20260504230715 | 81 | 345 | 0.0 | 0.0 | 0.00 | 0.00 | 0.00 | 35 | 1016.2 |
| 20260504230214 | 81 | 345 | 0.0 | 0.0 | 0.00 | 0.00 | 0.00 | 32 | 1016.2 |
| 20260504225712 | 82 | 300 | 0.0 | 0.0 | 0.00 | 0.00 | 0.00 | 34 | 1016.5 |
| 20260504225208 | 82 | 270 | 0.0 | 1.0 | 0.00 | 0.00 | 0.00 | 34 | 1016.3 |
| 20260504224705 | 82 | 300 | 0.0 | 0.0 | 0.00 | 0.00 | 0.00 | 33 | 1016.5 |
| 20260504224203 | 82 | 249 | 0.0 | 2.0 | 0.00 | 0.00 | 0.00 | 31 | 1016.5 |
| 20260504223659 | 87 | 278 | 0.0 | 1.0 | 0.00 | 0.00 | 0.00 | 30 | 1016.5 |
| 20260504223154 | 87 | 279 | 0.0 | 1.0 | 0.00 | 0.00 | 0.00 | 31 | 1016.3 |
| 20260504222652 | 86 | 279 | 0.0 | 1.0 | 0.00 | 0.00 | 0.00 | 31 | 1016.6 |
| 20260504222148 | 87 | 270 | 0.0 | 1.0 | 0.00 | 0.00 | 0.00 | 31 | 1016.5 |
| 20260504221646 | 84 | 345 | 1.0 | 2.0 | 0.00 | 0.00 | 0.00 | 33 | 1016.5 |
| 20260504221143 | 84 | 270 | 0.0 | 1.0 | 0.00 | 0.00 | 0.00 | 28 | 1016.5 |
| 20260504220639 | 86 | 270 | 0.0 | 2.0 | 0.00 | 0.00 | 0.00 | 28 | 1016.7 |
| 20260504220137 | 86 | 345 | 0.0 | 1.0 | 0.00 | 0.00 | 0.00 | 30 | 1016.5 |
| 20260504215632 | 87 | 276 | 0.0 | 2.0 | 0.00 | 0.00 | 0.00 | 27 | 1016.4 |
| 20260504215130 | 85 | 276 | 0.0 | 2.0 | 0.00 | 0.00 | 0.00 | 29 | 1016.6 |
| 20260504214626 | 83 | 311 | 0.0 | 3.0 | 0.00 | 0.00 | 0.00 | 32 | 1016.5 |
| 20260504214122 | 85 | 285 | 1.0 | 2.0 | 0.00 | 0.00 | 0.00 | 29 | 1016.6 |
| 20260504213619 | 84 | 279 | 0.0 | 1.0 | 0.00 | 0.00 | 0.00 | 31 | 1016.7 |
| 20260504213116 | 85 | 294 | 0.0 | 1.0 | 0.00 | 0.00 | 0.00 | 30 | 1016.6 |
| 20260504212612 | 83 | 105 | 1.0 | 1.0 | 0.00 | 0.00 | 0.00 | 31 | 1016.6 |
| 20260504212109 | 85 | 12 | 2.0 | 7.0 | 0.00 | 0.00 | 0.00 | 28 | 1016.6 |
| 20260504211606 | 85 | 270 | 0.0 | 1.0 | 0.00 | 0.00 | 0.00 | 35 | 1016.9 |
| 20260504211103 | 86 | 294 | 0.0 | 2.0 | 0.00 | 0.00 | 0.00 | 35 | 1016.7 |
| 20260504210601 | 83 | 60 | 1.0 | 2.0 | 0.00 | 0.00 | 0.00 | 29 | 1016.9 |
| 20260504210056 | 85 | 297 | 0.0 | 1.0 | 0.00 | 0.00 | 0.00 | 30 | 1016.7 |
| 20260504205554 | 85 | 278 | 0.0 | 1.0 | 0.00 | 0.00 | 0.00 | 32 | 1016.5 |
| 20260504205052 | 83 | 63 | 0.0 | 0.0 | 0.00 | 0.00 | 0.00 | 31 | 1016.7 |
| 20260504204550 | 82 | 3 | 0.0 | 3.0 | 0.00 | 0.00 | 0.00 | 33 | 1017.0 |
| 20260504204049 | 85 | 279 | 0.0 | 2.0 | 0.00 | 0.00 | 0.00 | 34 | 1016.9 |
| 20260504203547 | 81 | 90 | 1.0 | 6.0 | 0.00 | 0.00 | 0.00 | 30 | 1017.0 |
| 20260504203044 | 84 | 99 | 0.0 | 2.0 | 0.00 | 0.00 | 0.00 | 30 | 1017.0 |
| 20260504202539 | 83 | 81 | 0.0 | 3.0 | 0.00 | 0.00 | 0.00 | 32 | 1017.3 |
| 20260504202036 | 83 | 287 | 0.0 | 2.0 | 0.00 | 0.00 | 0.00 | 32 | 1017.4 |
| 20260504201533 | 84 | 78 | 0.0 | 2.0 | 0.00 | 0.00 | 0.00 | 35 | 1017.3 |
| 20260504201031 | 84 | 324 | 2.0 | 3.0 | 0.00 | 0.00 | 0.00 | 30 | 1017.1 |
| 20260504200527 | 84 | 294 | 0.0 | 2.0 | 0.00 | 0.00 | 0.00 | 35 | 1017.2 |
| 20260504200024 | 84 | 90 | 0.0 | 3.0 | 0.00 | 0.00 | 0.00 | 32 | 1017.4 |
| 20260504195520 | 85 | 278 | 1.0 | 2.0 | 0.00 | 0.00 | 0.00 | 31 | 1017.4 |
| 20260504195017 | 82 | 306 | 3.0 | 3.0 | 0.00 | 0.00 | 0.00 | 31 | 1017.6 |
| 20260504194514 | 82 | 278 | 0.0 | 2.0 | 0.00 | 0.00 | 0.00 | 33 | 1017.5 |
| 20260504194009 | 84 | 81 | 0.0 | 6.0 | 0.00 | 0.00 | 0.00 | 32 | 1017.6 |
| 20260504193506 | 84 | 270 | 0.0 | 2.0 | 0.00 | 0.00 | 0.00 | 37 | 1017.4 |
| 20260504193005 | 83 | 60 | 0.0 | 1.0 | 0.00 | 0.00 | 0.00 | 32 | 1017.6 |
| 20260504192502 | 80 | 354 | 1.0 | 4.0 | 0.00 | 0.00 | 0.00 | 30 | 1017.7 |
| 20260504192001 | 84 | 14 | 0.0 | 1.0 | 0.00 | 0.00 | 0.00 | 32 | 1017.7 |
| 20260504191458 | 84 | 71 | 0.0 | 2.0 | 0.00 | 0.00 | 0.00 | 33 | 1017.8 |
| 20260504190953 | 84 | 66 | 0.0 | 1.0 | 0.00 | 0.00 | 0.00 | 34 | 1017.7 |
| 20260504190449 | 84 | 77 | 1.0 | 2.0 | 0.00 | 0.00 | 0.00 | 30 | 1017.8 |
| 20260504185946 | 85 | 291 | 0.0 | 2.0 | 0.00 | 0.00 | 0.00 | 33 | 1017.8 |
| 20260504185443 | 83 | 74 | 0.0 | 2.0 | 0.00 | 0.00 | 0.00 | 36 | 1017.9 |
| 20260504184939 | 83 | 0 | 0.0 | 1.0 | 0.00 | 0.00 | 0.00 | 33 | 1017.9 |
| 20260504184435 | 83 | 81 | 1.0 | 1.0 | 0.00 | 0.00 | 0.00 | 33 | 1018.0 |
| 20260504183931 | 83 | 66 | 0.0 | 3.0 | 0.00 | 0.00 | 0.00 | 33 | 1018.1 |
| 20260504183429 | 82 | 45 | 2.0 | 2.0 | 0.00 | 0.00 | 0.00 | 34 | 1018.3 |
| 20260504182927 | 82 | 81 | 1.0 | 2.0 | 0.00 | 0.00 | 0.00 | 31 | 1018.3 |
| 20260504182423 | 80 | 83 | 1.0 | 3.0 | 0.00 | 0.00 | 0.00 | 31 | 1018.3 |
| 20260504181920 | 79 | 8 | 0.0 | 4.0 | 0.00 | 0.00 | 0.00 | 39 | 1018.5 |
| 20260504181417 | 82 | 292 | 2.0 | 2.0 | 0.00 | 0.00 | 0.00 | 37 | 1018.5 |
| 20260504180916 | 82 | 283 | 0.0 | 0.0 | 0.00 | 0.00 | 0.00 | 36 | 1018.5 |
| 20260504180415 | 81 | 0 | 0.0 | 2.0 | 0.00 | 0.00 | 0.00 | 34 | 1018.3 |
| 20260504175912 | 80 | 66 | 0.0 | 1.0 | 0.00 | 0.00 | 0.00 | 36 | 1018.5 |
| 20260504175409 | 79 | 74 | 2.0 | 3.0 | 0.00 | 0.00 | 0.00 | 37 | 1018.3 |
| 20260504174907 | 80 | 329 | 4.0 | 4.0 | 0.00 | 0.00 | 0.00 | 36 | 1018.5 |
| 20260504174404 | 80 | 90 | 1.0 | 3.0 | 0.00 | 0.00 | 0.00 | 36 | 1018.6 |
| 20260504173901 | 81 | 74 | 0.0 | 2.0 | 0.00 | 0.00 | 0.00 | 39 | 1018.9 |